Regional Weather Roundup
Issued by NWS

Home | Current Version | Previous Version | Graphics & Text | Print | Product List | Glossary On
Versions: 1 2 3 4 5 6 7 8 9 10 11 12 13 14 15 16 17 18 19 20 21 22 23 24 25 26 27 28 29 30 31 32 33 34 35 36 37 38 39 40 41 42 43 44 45 46 47 48 49 50
000
ASUS45 KTFX 171710
RWRMT
MONTANA REGIONAL WEATHER ROUNDUP
NATIONAL WEATHER SERVICE GREAT FALLS MT
1000 AM MST FRI NOV 17 2017

NOTE: "FAIR" INDICATES FEW OR NO CLOUDS BELOW 12000 FEET WITH NO
SIGNIFICANT WEATHER AND/OR OBSTRUCTIONS TO VISIBILITY.

MTZ001>007-043-171800-
WEST OF THE DIVIDE

CITY           SKY/WX    TMP DP  RH WIND       PRES   REMARKS
KALISPELL      CLOUDY    37  31  78 S12       29.70R WCI  29
MISSOULA       PTSUNNY   32  29  88 CALM      29.79R
BUTTE          FAIR      23  21  92 CALM      29.73R FOG
MULLAN PASS    SNOW      23  20  88 VRB3      29.71R VSB 1/2
ANACONDA         N/A     34  16  47 SW18G26   29.73R WCI  23
EUREKA           N/A     39  27  60 MISG      29.69R
HAMILTON         N/A     37  21  52 S7        29.79R
LIBBY            N/A     34  34 100 S3        29.73R
RONAN            N/A     36  27  70 S7        29.81R WCI  30
$$

MTZ008-052>055-171800-
SOUTHWEST MONTANA

CITY           SKY/WX    TMP DP  RH WIND       PRES   REMARKS
BOZEMAN        CLOUDY    28  25  88 NW3       29.73R
DILLON         FAIR      33  20  58 SE3       29.73R
W YELLOWSTONE  FAIR      30  25  80 SW9G15    29.69R WCI  22
ENNIS          CLOUDY    36  19  51 CALM      29.76R
$$

MTZ009-010-012-014-046-048-049-054-171800-
EAST SLOPES AND CENTRAL MONTANA

CITY           SKY/WX    TMP DP  RH WIND       PRES   REMARKS
CUT BANK       FAIR      33  25  72 W17       29.58R WCI  22
GREAT FALLS    FAIR      37  21  52 SW14      29.62R WCI  28
MALMSTROM AFB  FAIR      40  21  47 SW23G29   29.63R
HELENA         FAIR      39  21  48 W18G28    29.68S WCI  30
BOWMANS CRNR   FAIR      37  17  44 W14G22    29.62R WCI  28
CHOTEAU          N/A     39  16  38 W7        29.62R
POWER          PTSUNNY   34  22  62 SW8       29.61R WCI  27
RAYNESFORD     FAIR      38  17  42 SW23G29   29.63R WCI  27
ULM            FAIR      40  20  45 SW15      29.65R
$$

MTZ011-013-016-021-045-047-050-051-171800-
NORTH CENTRAL MONTANA

CITY           SKY/WX    TMP DP  RH WIND       PRES   REMARKS
HAVRE          FAIR      33  27  78 SW16      29.60R WCI  23
LEWISTOWN      PTSUNNY   36  22  56 W6        29.63R WCI  31
N BAR RANCH    FAIR      37  16  41 W21       29.63S WCI  27
CHINOOK          N/A     21  18  86 SE6       29.62S WCI  14
DENTON         FAIR      37  22  54 W12       29.59S WCI  29
GEYSER         FAIR      37  20  50 W16       29.61R WCI  27
GRASS RANGE    FAIR      41  18  40 W20G28    29.59R
STANFORD       FAIR      35  17  47 W25       29.61R WCI  23
WINIFRED       PTSUNNY   37  22  53 W13       29.61R WCI  29
$$

MTZ017>020-022>027-061-062-171800-
NORTHEAST MONTANA

CITY           SKY/WX    TMP DP  RH WIND       PRES   REMARKS
GLASGOW        FAIR      26  24  92 SE8       29.63R WCI  18
GLENDIVE       FAIR      33  26  75 S5        29.65S
JORDAN           N/A     41  29  62 W5        29.61F
SIDNEY         FAIR      26  23  88 NE5       29.69F
WOLF POINT     FAIR      25  19  78 E9        29.67S WCI  15
MALTA          SUNNY     23  19  86 E6        29.62S WCI  16
PLENTYWOOD       N/A     18  10  73 CALM      29.68R
POPLAR           N/A     27  19  74 NE5       29.68S
$$

MTZ028>42-056>058-171800-
SOUTHCENTRAL AND SOUTHEAST MONTANA

CITY           SKY/WX    TMP DP  RH WIND       PRES   REMARKS
BAKER          FAIR      39  33  79 MISG      29.65S
BILLINGS       PTSUNNY   37  32  82 SW9       29.65R WCI  30
LIVINGSTON     CLOUDY    36  27  69 SW15      29.67R WCI  27
MILES CITY     FAIR      38  34  85 S5        29.64F
BIG TIMBER     MOSUNNY   36  28  75 SW14      29.69R WCI  27
FORSYTH          N/A     43  36  75 CALM      29.64R
HARLOWTON      FAIR      30  23  73 W20       29.62S WCI  18
$$

REGIONAL REPORTS...DAKOTAS

CITY           SKY/WX    TMP DP  RH WIND       PRES   REMARKS
WILLISTON      FAIR      22  11  62 SE5       29.71S
MINOT          FAIR      20  10  65 SW7       29.72R WCI  11
DICKINSON      FAIR      35  25  66 CALM      29.65S
BEACH          FAIR      34  30  86 SE6       29.67F WCI  29
CROSBY         FAIR      14   9  79 SW5       29.71S
TIOGA          FAIR      16  10  79 W3        29.70S
WATFORD CITY   FAIR      21  14  73 CALM      29.69F
BISMARCK       PTSUNNY   34  23  64 N7        29.72S WCI  28
GRAND FORKS    PTSUNNY   27  18  69 NW15      29.70R WCI  15
FARGO          FAIR      37  29  72 NW12      29.67R WCI  29
BUFFALO SD       N/A     42  34  73 W9        29.59F
RAPID CITY     CLOUDY    39  36  89 CALM      29.68F
$$

REGIONAL REPORTS...WYOMING/IDAHO/WASHINGTON

CITY           SKY/WX    TMP DP  RH WIND       PRES   REMARKS
GILLETTE       CLOUDY    35  34  96 S5        29.64S
SHERIDAN       FLURRIES  34  33  96 SE5       29.68R
BUFFALO WY     SNOW      32  30  92 E3        29.65F VSB<1/4
CODY           LGT SNOW  33  31  92 SW9G16    29.66S VSB 3/4 WCI  25
YELLOWSTONE LA   N/A     24  22  91 CALM      29.69R
IDAHO FALLS    CLOUDY    35  33  92 S20       29.77R WCI  24
SALMON         CLOUDY    34  28  80 VRB5      29.83R
BOISE          FAIR      42  29  59 NW14      29.95R
SPOKANE        FAIR      34  31  88 SW18      29.84R WCI  23
$$

REGIONAL REPORTS...ALBERTA

CITY           SKY/WX    TMP DP  RH WIND       PRES   REMARKS
EDMONTON       PTSUNNY    5  -2  72 W8        29.69R WCI  -8
CALGARY        LGT SNOW   7   3  85 N7        29.59  VSB 5/8 WCI  -5
LETHBRIDGE     PTSUNNY    9   5  85 NW8       29.62R FOG     WCI  -4
MEDICINE HAT   PTSUNNY    9   5  85 NE8       29.65R WCI  -4
$$

REGIONAL REPORTS...SASKATCHEWAN

CITY           SKY/WX    TMP DP  RH WIND       PRES   REMARKS
SWIFT CURRENT  MOSUNNY    9   3  78 NE2       29.60S
REGINA         MOSUNNY    5   1  85 W6        29.68R WCI  -6
SASKATOON      PTSUNNY   10   5  79 SW14      29.69R WCI  -5
$$



USA.gov is the U.S. government's official web portal to all federal, state and local government web resources and services.